Вернуться в каталог

3CAT-5/A

TYVAK-0161

АктивенНаукаSSO
NORAD 46292·PAYLOAD·🇪🇸 Spain

Запущен Sep 3, 2020 с Guiana Space Centre

Loading…

Ближайшие Пролёты (ближайшие 24 часа)

TLE

СвежийSource: Space-Track

Эпоха: Sep 14, 2026, 11:32 UTC

1 46292U 20061W   26257.48122126  .00014165  00000-0  26645-3 0  9993
2 46292  97.2302 320.3863 0002845 126.1783 233.9731 15.48661361334830

Отслеживайте 3CAT-5/A в реальном времени с AllMySat

Download on the App Store